Wind_Speed
19 18 16 15 14 13 13 16 17 17 16 15 15 13 12 13 13 13 11 12 13 13 12 14 13 13 12 11 11 11 11 11 10 9 8 7 6 5 4 4 3 3 3 3 3 2 2 2 2
21 20 18 17 15 13 14 18 18 19 17 16 15 14 12 12 13 13 13 12 12 13 13 15 15 14 13 12 12 12 12 12 11 10 10 8 8 7 6 5 5 5 4 4 4 4 3 3 2
22 21 21 19 17 15 17 20 20 20 18 16 15 14 13 12 12 12 13 12 12 13 14 15 15 14 13 13 12 13 13 12 12 12 11 10 9 8 7 7 7 6 6 6 6 5 5 4 3
23 23 22 21 19 19 21 22 21 21 19 18 16 15 14 13 13 12 12 13 13 14 15 15 15 15 14 13 13 13 13 13 13 13 12 12 11 10 9 9 8 8 8 7 7 7 6 5 4
23 23 23 22 21 22 23 24 23 22 21 19 18 16 15 14 14 14 13 13 14 15 16 16 17 16 15 15 14 14 14 14 13 13 13 13 13 12 11 11 10 10 9 9 8 8 7 6 5
23 23 23 22 23 24 25 26 26 24 23 21 19 17 16 15 14 14 14 14 15 16 17 18 17 17 16 16 15 15 15 14 14 14 14 14 14 13 13 12 11 11 11 10 10 9 8 7 7
23 23 23 23 24 25 27 27 27 26 25 24 21 19 17 15 15 15 15 15 15 15 16 16 17 17 17 17 17 16 16 15 15 15 15 15 15 14 14 13 13 12 12 11 11 10 9 9 8
22 22 23 23 24 26 27 27 28 27 26 25 23 21 20 18 17 16 15 15 16 16 16 16 17 18 19 19 18 18 17 16 16 16 15 15 15 15 15 14 14 13 13 13 12 11 11 10 10
20 21 22 22 24 26 26 27 28 27 26 25 24 22 21 19 19 18 17 16 17 17 16 18 18 18 18 18 19 19 18 18 17 17 16 16 16 16 16 15 15 14 14 13 13 13 12 12 12
18 19 21 21 22 24 25 26 28 27 26 25 25 23 22 21 20 19 19 18 19 19 18 19 18 18 19 19 19 19 19 19 18 17 16 16 16 17 17 16 16 16 15 15 15 14 14 14 13
18 19 20 20 21 22 24 26 27 27 27 27 26 24 23 21 20 20 20 20 20 20 19 19 19 19 19 19 20 21 20 20 19 18 17 17 17 17 17 17 17 17 17 16 16 16 16 16 16
18 19 20 21 21 22 24 25 26 28 28 28 26 24 23 23 22 21 22 22 21 20 20 19 20 20 20 21 22 22 22 21 20 20 19 19 19 19 18 19 18 18 18 18 18 18 18 18 17
18 19 20 22 22 23 23 24 26 27 29 28 26 25 25 24 24 23 24 23 22 22 21 19 19 20 21 21 22 23 22 22 21 20 20 20 20 20 20 20 20 20 19 19 19 20 20 20 19
19 20 20 22 23 23 23 24 26 27 28 28 27 27 26 26 26 25 24 24 22 22 21 21 20 21 21 23 23 22 23 21 21 21 21 21 21 21 22 22 22 21 22 21 21 22 22 21 21
19 20 21 22 23 24 24 25 25 26 27 27 27 27 27 27 27 26 25 24 23 23 23 22 22 22 23 24 25 23 23 23 23 23 23 23 23 23 24 23 23 23 23 23 23 23 23 22 22
18 19 21 23 23 23 23 23 25 25 26 26 27 28 28 29 28 28 28 27 26 25 24 24 23 23 24 25 25 25 25 25 25 26 25 25 25 25 24 24 24 25 25 24 24 24 24 24 24
18 18 20 22 23 23 22 23 25 24 25 25 26 27 28 29 30 29 29 29 28 27 26 24 23 24 26 26 25 25 26 26 26 27 27 27 27 26 26 26 26 26 26 26 26 26 26 26 26
18 19 20 22 23 22 22 23 23 23 23 24 25 27 28 29 30 30 29 30 30 28 26 26 24 24 25 26 25 24 25 25 26 26 26 27 28 28 29 28 28 28 28 28 29 28 29 29 29
18 19 20 21 22 22 22 21 21 22 23 23 24 26 27 28 30 30 30 31 31 30 28 27 26 25 25 25 25 24 24 24 25 26 27 28 28 28 29 27 27 29 30 30 31 31 30 30 31
18 18 18 20 21 20 21 20 20 21 22 23 23 24 26 27 29 30 31 31 31 30 29 28 27 26 26 26 25 25 26 27 27 28 28 28 28 29 28 28 28 30 31 31 31 32 32 32 32
17 17 16 17 19 19 19 19 20 20 21 21 23 24 25 26 28 30 31 31 31 31 30 29 28 27 27 28 28 27 27 28 28 28 29 28 28 29 30 30 31 32 32 32 32 32 33 33 33
15 16 15 16 16 16 17 16 17 18 19 20 21 23 25 25 27 28 30 30 31 31 30 29 29 29 29 29 30 28 27 27 27 28 29 29 29 30 32 32 33 33 33 33 33 33 33 33 33
14 15 15 15 15 15 15 15 16 16 17 19 20 22 23 25 27 28 29 30 30 31 30 30 30 31 31 30 30 29 28 28 27 27 28 30 30 30 31 33 33 33 34 33 33 33 34 33 34
13 14 14 14 14 14 14 15 15 16 16 17 19 20 22 23 25 27 28 29 29 30 30 30 31 31 31 30 30 30 30 29 28 28 28 29 31 32 33 34 35 35 34 34 34 34 35 34 34
13 12 12 12 12 13 15 15 16 16 15 16 18 19 21 22 23 24 26 28 29 29 30 30 31 31 31 31 30 31 31 30 29 28 28 28 29 31 32 33 34 35 35 34 35 36 36 35 35
12 11 11 12 12 12 15 15 15 14 15 15 16 18 20 22 23 23 24 25 27 28 29 30 30 31 31 31 30 30 29 28 27 27 27 26 26 28 29 31 33 34 34 34 35 35 35 35 35
11 11 12 13 12 12 13 14 14 14 15 15 15 16 18 18 20 23 24 25 26 27 28 28 29 30 31 31 31 30 27 27 27 26 26 26 27 27 28 28 29 31 32 32 33 33 34 35 36
11 12 12 10 10 11 13 14 13 13 14 15 15 16 17 18 18 20 23 26 26 26 27 28 28 29 30 31 30 29 28 28 27 27 27 26 25 25 25 26 27 29 31 31 32 33 34 35 35
11 10 10 9 10 11 12 13 13 13 13 14 15 15 15 17 18 19 21 23 25 26 27 28 28 28 28 29 29 29 28 28 27 26 26 26 26 27 27 28 28 28 29 30 30 32 34 34 35
9 9 9 10 11 12 12 13 13 13 12 13 13 13 14 16 17 18 19 21 23 24 26 27 27 27 27 27 27 26 27 27 27 27 26 25 26 27 28 28 29 29 29 29 30 32 32 34 35
Wind_Direction
255 254 254 253 251 251 250 256 259 262 264 265 267 269 270 267 267 266 263 257 247 238 230 220 215 213 213 215 220 225 226 222 215 208 205 203 203 205 212 223 232 234 236 240 237 238 245 239 230
254 253 252 251 249 247 252 254 257 260 263 265 267 269 270 268 268 265 260 255 248 240 231 223 220 218 217 220 224 225 227 225 221 216 214 213 215 218 223 230 235 236 233 232 228 230 234 232 232
253 252 251 251 249 243 246 253 255 260 263 265 266 267 267 266 268 265 258 249 245 242 236 229 225 223 222 224 227 228 228 227 225 222 220 220 222 225 230 235 236 234 231 230 228 228 229 229 231
253 252 251 251 249 245 247 252 254 259 262 264 265 267 267 265 265 265 258 252 250 246 239 230 227 227 229 228 228 230 230 229 227 225 226 227 229 230 232 235 233 231 229 229 229 228 227 227 228
253 253 253 252 250 248 249 252 254 256 259 261 262 264 268 265 264 264 260 257 252 246 239 236 231 229 229 230 230 231 232 232 230 229 229 230 231 232 233 233 231 228 227 228 229 228 227 227 227
254 254 254 253 251 250 251 253 254 255 258 259 260 261 265 264 261 262 264 262 255 250 241 237 235 231 229 230 232 234 234 232 232 232 231 231 231 233 233 231 229 228 228 228 227 226 226 225 226
254 254 254 253 252 252 252 254 255 255 257 258 259 259 261 261 259 262 266 264 257 256 251 241 238 235 233 234 235 236 236 234 235 235 235 234 233 233 233 231 229 229 229 227 225 224 225 224 226
255 255 255 254 253 253 253 254 255 256 257 259 259 258 257 256 259 262 265 264 262 258 250 243 240 237 237 236 237 237 237 235 235 237 238 237 235 234 233 232 230 229 228 226 225 224 225 227 230
256 255 255 254 252 253 254 254 255 256 257 258 258 257 255 255 258 260 262 262 260 257 251 243 240 240 240 237 237 237 236 236 235 237 237 237 235 235 234 234 232 230 228 227 226 227 228 231 233
257 256 256 256 255 256 255 254 255 255 255 256 256 256 255 254 256 259 260 260 257 253 250 244 244 241 239 238 239 237 234 235 235 236 238 237 236 236 236 234 233 232 231 230 230 231 232 234 236
262 261 261 259 258 257 256 255 254 253 252 252 254 254 254 252 253 255 258 258 255 252 249 247 246 244 240 240 240 238 236 235 235 238 240 238 237 238 237 236 235 235 235 234 233 234 235 236 238
265 265 264 263 262 260 258 257 255 253 252 253 253 252 251 251 251 251 253 255 253 249 245 249 246 244 242 240 238 238 239 236 237 239 239 238 236 237 238 238 237 237 238 236 236 236 237 239 241
267 267 267 266 265 264 262 259 256 254 253 253 251 249 248 248 248 249 250 250 248 246 246 250 246 242 243 241 240 238 238 238 237 238 239 237 236 237 239 239 238 238 239 238 238 238 239 241 243
269 270 270 270 268 266 263 261 258 256 254 253 251 248 247 245 245 246 247 249 246 245 245 246 245 243 243 243 242 239 240 239 238 238 239 239 238 238 239 240 240 240 241 241 242 242 242 243 244
274 275 274 272 270 269 267 264 260 257 255 252 250 247 246 244 242 243 242 244 243 244 246 244 243 243 243 244 245 242 242 242 241 241 242 241 241 240 241 242 243 243 242 241 243 243 244 244 245
280 281 280 277 274 271 268 264 261 256 253 250 248 245 244 243 241 241 242 243 243 243 247 248 245 243 244 245 245 246 246 243 243 243 244 243 243 242 242 243 244 244 244 244 245 246 246 247 249
284 282 280 280 276 273 267 262 262 257 253 249 246 243 242 242 240 239 240 241 243 244 247 249 249 247 245 245 246 249 250 248 246 245 243 246 245 244 243 246 247 246 246 246 247 247 248 250 252
283 283 281 279 277 273 269 265 263 257 254 250 246 242 241 240 240 239 239 239 242 245 247 249 250 251 250 247 248 249 252 252 252 249 249 249 247 246 245 247 248 247 249 249 249 249 251 252 253
284 282 281 279 276 272 269 267 264 258 252 248 245 241 239 238 237 236 236 238 241 243 246 249 249 251 253 252 252 255 255 255 254 253 252 252 251 251 250 246 247 250 252 252 251 251 252 252 255
287 285 281 279 278 274 270 268 263 257 252 248 245 242 240 238 236 235 236 238 240 242 244 248 251 252 257 258 257 258 258 257 255 255 254 253 251 250 248 248 249 252 252 253 255 253 252 255 257
291 287 281 280 280 278 275 270 264 258 253 247 244 242 242 241 239 236 237 238 240 243 247 250 252 253 257 258 259 260 260 258 256 256 256 254 253 251 251 250 249 251 253 253 255 253 254 256 257
290 287 285 283 282 283 280 276 268 261 253 248 246 244 242 241 240 238 237 239 240 243 247 250 253 255 257 258 259 262 264 263 261 260 258 257 256 254 252 250 250 250 250 252 254 253 255 256 256
282 282 284 285 283 279 279 275 268 262 254 248 244 244 242 241 239 237 237 238 239 242 246 249 252 255 257 259 260 262 266 267 266 265 262 258 256 255 254 249 249 251 251 251 251 253 254 255 256
283 284 287 287 284 279 278 273 270 264 257 250 245 243 243 245 242 239 238 238 239 242 245 249 251 256 258 259 259 261 264 266 267 268 265 261 258 255 254 252 250 250 251 250 251 252 254 255 257
286 287 290 288 283 281 277 272 266 264 257 253 246 244 247 246 243 241 241 238 239 243 247 249 252 256 257 258 258 261 264 266 266 266 262 261 258 254 253 250 248 248 249 251 252 254 256 256 258
284 280 277 278 275 274 278 273 272 266 258 254 249 248 249 248 243 242 243 241 242 246 249 251 252 254 256 259 260 260 260 262 263 264 264 263 259 254 252 251 249 248 251 252 253 255 256 257 259
282 284 281 281 283 280 280 280 277 272 263 258 255 254 252 252 244 241 243 244 246 248 251 253 254 255 257 259 259 258 258 260 263 263 262 262 261 258 254 252 252 252 252 252 254 257 258 261 264
282 283 285 285 285 283 286 287 283 276 270 262 261 259 255 254 251 246 245 244 247 249 251 253 255 257 258 257 256 257 258 260 261 260 259 261 261 258 257 255 255 256 256 257 259 259 261 264 266
288 283 284 282 276 284 289 289 289 277 270 264 261 259 257 255 254 251 249 248 248 250 252 254 254 256 257 257 256 257 259 259 259 260 259 259 261 260 258 256 257 258 259 260 261 262 263 265 267
287 281 282 283 284 285 288 288 288 282 275 270 267 261 259 257 254 252 252 251 250 251 252 252 254 255 258 258 256 257 258 259 260 259 258 256 257 258 257 258 259 261 261 262 262 265 267 269 270
Height
5884 5885 5886 5888 5890 5891 5892 5890 5889 5889 5890 5891 5892 5893 5893 5894 5895 5897 5895 5894 5894 5894 5894 5894 5895 5895 5895 5896 5897 5898 5898 5899 5899 5899 5900 5900 5900 5901 5901 5902 5902 5903 5903 5903 5903 5903 5903 5903 5903
5880 5881 5883 5885 5887 5889 5889 5887 5886 5886 5887 5888 5889 5890 5891 5891 5892 5892 5891 5891 5891 5891 5892 5892 5893 5893 5894 5894 5895 5896 5896 5897 5897 5898 5898 5898 5899 5899 5900 5900 5901 5901 5901 5901 5902 5902 5902 5902 5902
5876 5877 5880 5882 5883 5885 5886 5883 5883 5883 5884 5885 5886 5887 5888 5889 5889 5889 5889 5889 5889 5889 5890 5890 5891 5892 5892 5893 5893 5894 5894 5895 5895 5896 5896 5896 5897 5897 5898 5898 5899 5899 5900 5900 5900 5900 5900 5900 5900
5872 5873 5876 5878 5879 5880 5879 5879 5879 5880 5881 5882 5884 5885 5886 5886 5887 5887 5887 5887 5887 5887 5887 5887 5888 5889 5890 5890 5891 5892 5892 5893 5893 5894 5894 5894 5895 5895 5896 5897 5897 5897 5898 5898 5899 5899 5899 5899 5899
5867 5869 5871 5873 5874 5875 5874 5874 5875 5876 5878 5879 5881 5882 5882 5883 5884 5884 5884 5884 5884 5884 5884 5884 5885 5886 5887 5888 5888 5889 5890 5890 5891 5891 5892 5892 5893 5893 5894 5895 5895 5896 5896 5896 5897 5897 5897 5897 5898
5863 5865 5867 5868 5869 5869 5870 5870 5871 5872 5874 5876 5877 5879 5879 5880 5880 5881 5881 5881 5881 5881 5881 5881 5882 5882 5883 5885 5886 5887 5887 5888 5888 5889 5889 5890 5890 5891 5892 5892 5893 5893 5894 5894 5895 5895 5895 5896 5896
5860 5860 5862 5863 5864 5864 5865 5865 5866 5868 5869 5871 5873 5875 5876 5876 5877 5878 5878 5878 5878 5878 5878 5878 5879 5880 5880 5882 5883 5884 5884 5885 5885 5886 5886 5887 5887 5888 5889 5890 5890 5891 5892 5892 5893 5893 5893 5894 5894
5854 5856 5856 5858 5859 5859 5860 5860 5861 5863 5865 5867 5869 5871 5872 5873 5874 5874 5875 5875 5875 5875 5875 5875 5876 5876 5877 5878 5879 5880 5881 5881 5882 5883 5883 5884 5884 5885 5886 5887 5888 5889 5889 5890 5890 5891 5891 5892 5892
5849 5852 5852 5852 5853 5854 5854 5855 5856 5858 5860 5862 5864 5866 5868 5869 5870 5871 5871 5872 5872 5871 5871 5872 5872 5873 5874 5875 5876 5876 5877 5878 5878 5879 5880 5880 5881 5882 5883 5884 5885 5886 5887 5887 5888 5889 5889 5889 5890
5845 5846 5847 5847 5848 5849 5849 5850 5851 5853 5855 5857 5859 5861 5863 5865 5866 5867 5867 5868 5868 5868 5868 5868 5869 5870 5870 5871 5872 5872 5873 5874 5874 5876 5876 5877 5878 5878 5879 5881 5882 5883 5884 5884 5885 5886 5886 5887 5887
5840 5841 5841 5842 5843 5843 5844 5845 5846 5848 5850 5852 5853 5856 5858 5860 5861 5863 5863 5863 5864 5864 5864 5865 5865 5866 5867 5868 5868 5868 5869 5870 5871 5872 5873 5873 5874 5875 5875 5877 5878 5879 5880 5881 5882 5883 5884 5884 5884
5836 5836 5837 5837 5838 5838 5839 5839 5841 5842 5844 5846 5848 5850 5853 5855 5856 5858 5858 5859 5859 5860 5860 5860 5861 5862 5863 5864 5864 5864 5865 5866 5867 5868 5869 5869 5870 5871 5872 5873 5874 5876 5877 5878 5879 5880 5880 5881 5881
5831 5832 5832 5832 5832 5833 5833 5834 5835 5836 5837 5839 5842 5845 5847 5849 5851 5852 5853 5854 5855 5856 5856 5856 5856 5857 5858 5859 5860 5860 5860 5862 5863 5864 5865 5865 5866 5867 5868 5869 5871 5872 5873 5874 5875 5876 5877 5877 5878
5827 5827 5826 5827 5827 5827 5828 5828 5829 5830 5832 5834 5836 5839 5841 5843 5845 5847 5848 5849 5850 5851 5851 5852 5852 5853 5854 5855 5855 5856 5857 5858 5859 5860 5861 5861 5862 5863 5864 5865 5867 5868 5869 5870 5871 5872 5873 5874 5874
5821 5822 5821 5821 5821 5821 5822 5823 5823 5824 5825 5827 5830 5832 5835 5837 5839 5841 5843 5844 5845 5846 5846 5847 5848 5849 5849 5850 5851 5852 5852 5853 5854 5855 5856 5855 5857 5858 5859 5861 5863 5864 5865 5866 5867 5868 5869 5869 5870
5817 5817 5817 5815 5815 5815 5818 5817 5816 5818 5819 5821 5824 5826 5828 5830 5833 5835 5837 5839 5840 5841 5841 5842 5843 5844 5844 5845 5846 5846 5847 5848 5849 5849 5850 5850 5852 5854 5854 5856 5858 5859 5860 5861 5862 5863 5864 5865 5865
5812 5812 5811 5810 5809 5810 5811 5811 5811 5812 5813 5815 5817 5820 5822 5824 5826 5829 5831 5832 5833 5835 5836 5836 5837 5838 5839 5839 5841 5841 5841 5842 5844 5845 5845 5846 5847 5849 5850 5851 5852 5854 5855 5856 5857 5858 5859 5860 5860
5808 5807 5806 5805 5804 5804 5804 5805 5805 5806 5807 5809 5811 5813 5815 5817 5820 5822 5824 5826 5827 5829 5830 5831 5832 5833 5833 5834 5835 5836 5836 5836 5837 5839 5840 5841 5842 5843 5844 5845 5846 5848 5849 5850 5851 5852 5853 5854 5855
5803 5803 5802 5800 5799 5799 5799 5799 5799 5800 5801 5802 5804 5806 5809 5811 5813 5815 5817 5820 5821 5823 5824 5825 5826 5827 5828 5829 5829 5830 5830 5831 5831 5833 5834 5835 5836 5837 5838 5839 5840 5842 5843 5845 5845 5846 5847 5848 5848
5798 5798 5797 5795 5794 5794 5793 5793 5794 5794 5795 5797 5798 5800 5802 5804 5806 5809 5811 5813 5815 5817 5818 5819 5820 5822 5822 5823 5823 5823 5824 5825 5826 5827 5827 5828 5829 5830 5831 5833 5834 5835 5837 5838 5838 5839 5840 5841 5842
5794 5793 5792 5791 5789 5789 5789 5789 5789 5789 5790 5792 5793 5795 5796 5798 5800 5803 5805 5807 5809 5811 5812 5814 5815 5816 5817 5817 5817 5818 5818 5818 5819 5819 5820 5821 5822 5823 5823 5825 5826 5828 5829 5831 5832 5832 5833 5834 5835
5790 5788 5787 5786 5786 5786 5786 5786 5785 5784 5785 5786 5787 5789 5791 5792 5794 5796 5798 5801 5803 5805 5806 5808 5809 5810 5810 5811 5812 5812 5812 5812 5812 5812 5813 5814 5814 5815 5816 5817 5819 5820 5821 5823 5824 5825 5826 5827 5827
5786 5784 5783 5782 5782 5782 5781 5781 5782 5780 5781 5782 5782 5783 5785 5786 5788 5790 5792 5794 5796 5798 5800 5801 5802 5803 5803 5804 5805 5806 5806 5806 5805 5805 5804 5806 5807 5808 5808 5809 5810 5812 5813 5815 5816 5817 5818 5819 5819
5781 5781 5780 5779 5779 5779 5778 5778 5778 5776 5776 5777 5777 5778 5780 5781 5782 5784 5785 5787 5789 5792 5793 5795 5795 5796 5797 5798 5799 5799 5799 5799 5798 5797 5797 5798 5799 5799 5800 5801 5803 5804 5805 5807 5808 5809 5810 5811 5811
5778 5779 5779 5778 5777 5776 5774 5773 5774 5772 5772 5772 5773 5774 5775 5775 5776 5777 5779 5781 5783 5785 5786 5788 5789 5789 5790 5791 5791 5792 5792 5792 5792 5791 5791 5792 5792 5792 5792 5793 5794 5796 5797 5798 5800 5801 5802 5803 5803
5775 5775 5776 5775 5775 5773 5770 5769 5769 5767 5767 5767 5768 5769 5770 5770 5770 5772 5773 5775 5777 5778 5780 5781 5782 5782 5783 5783 5784 5785 5785 5785 5785 5785 5785 5785 5785 5785 5785 5786 5787 5788 5789 5790 5792 5793 5793 5794 5794
5772 5771 5771 5770 5769 5768 5767 5765 5764 5763 5763 5763 5763 5764 5764 5764 5765 5766 5768 5769 5771 5772 5773 5774 5774 5775 5776 5777 5777 5778 5778 5778 5778 5778 5778 5778 5778 5778 5778 5779 5779 5781 5782 5782 5783 5784 5785 5785 5785
5769 5768 5767 5766 5766 5766 5765 5762 5761 5759 5758 5759 5759 5759 5759 5759 5760 5761 5762 5763 5764 5765 5766 5767 5768 5768 5769 5769 5770 5770 5770 5771 5771 5771 5771 5771 5771 5771 5771 5772 5773 5773 5774 5775 5776 5776 5776 5776 5776
5766 5765 5764 5764 5763 5762 5761 5761 5757 5755 5755 5754 5754 5754 5754 5754 5754 5755 5755 5756 5757 5758 5759 5760 5761 5761 5762 5762 5762 5762 5763 5763 5763 5764 5764 5763 5764 5764 5765 5765 5766 5766 5767 5767 5768 5768 5768 5767 5767
5763 5762 5762 5761 5760 5759 5758 5759 5753 5752 5751 5750 5750 5749 5749 5749 5749 5749 5749 5750 5751 5751 5752 5753 5753 5754 5754 5754 5755 5755 5756 5756 5756 5756 5756 5757 5757 5757 5758 5758 5758 5759 5759 5759 5759 5759 5759 5759 5758